Location: Newark
(52.5694°N, 1.3190°W)
Time: 18:19:37
(UTC+00:00)

N. Korean satellite - Pass Details

Date: 28 January 2020
Orbit: 456 x 506 km, 97.2° (Epoch: 17 February)

Event Time Altitude Azimuth Distance (km) Brightness Sun altitude
Rises 18:13:28 0° 215° (SW) 2,467 10.9 -13.7°
Reaches altitude 10° 18:16:38 10° 249° (WSW) 1,604 10.6 -14.1°
Maximum altitude 18:18:00 12° 272° (W) 1,494 10.3 -14.3°
Drops below altitude 10° 18:19:23 10° 296° (WNW) 1,615 10.0 -14.5°
Sets 18:22:36 0° 329° (NNW) 2,507 10.5 -15.0°
